sat.trackr.live / text

‹ back to catalog

CONNECTA IOT-11

NORAD 64557 · 2025-135AF

PAYLOAD ACTIVE UNKNOWN

§ Identity

Operator
Country
TURK
Launch date
2025-06-23
Launch site
AFWTR
Launch vehicle
Mass (kg)
RCS (m²)

External: N2YO · Heavens-Above · Gunter

§ Orbital elements

Epoch: 2026-09-21T19:54:02.001312Z

Period
94.66 min
Inclination
97.4787°
Eccentricity
0.0002029
Mean motion
15.21261808 rev/d
Perigee alt
500.6 km
Apogee alt
503.4 km
Semi-major
6,880.2 km
B*
1.4510e-4
RAAN
19.3531°
Arg perigee
56.1403°
Mean anomaly
304.0026°
Rev number
6,955

§ Raw data

CONNECTA IOT-111 64557U 25135AF  26264.82918983  .00003172  00000+0  14510-3 0  99972 64557  97.4787  19.3531 0002029  56.1403 304.0026 15.21261808 69559

JSON: /api/v1/satellites/64557 · /tle

For live sub-satellite position, see the globe view (requires WebGL).

§ Visibility from observer

Set your observer location to see the next 7 days of passes ≥ 10°. The values pass through the URL so the page stays shareable.

No JS? Fill the form by hand. The geolocation button needs JavaScript.

§ Radio — SatNOGS DB

ModeDescriptionDownlinkUplink
UNKNOWN Mode S - GMSK 4k8 AX.25 TLM 2.240 GHz
GMSK Mode U - GMSK 4k8 AX.25 TLM 401.530 MHz

2 transmitters · refreshed weekly from db.satnogs.org